Whiteman AFB, MO

7:39 PM CDT on August 17, 2017 (GMT -0500)
Whiteman Air Force Base

Weather History for KSZL - November, 2014

Change the Weather History Date:

Friday, November 28, 2014

  Actual Average Record
Temperature  
Mean Temperature 44 °F -  
Max Temperature 59 °F 48 °F 71 °F (1998)
Min Temperature 30 °F 33 °F 23 °F (2013)
Degree Days  
Heating Degree Days 20    
Moisture  
Dew Point 31 °F    
Average Humidity 58    
Maximum Humidity 75    
Minimum Humidity 38    
Precipitation  
Precipitation 0.00 in - - ()
Sea Level Pressure  
Sea Level Pressure 29.98 in    
Wind  
Wind Speed 13 mph (SSW)    
Max Wind Speed 23 mph    
Max Gust Speed 30 mph    
Visibility 10 miles    
Events      
Averages and records for this station are not official NWS values.
T = Trace of Precipitation, MM = Missing Value Source: NWS Daily Summary

Daily Weather History Graph

Daily Weather History Graph

Search for Another Location

Airport or City:

Trip Planner

Search our weather history database for the weather conditions in past years. The results will help you decide how hot, cold, wet, or windy it might be!

Date:

Astronomy

Nov. 28, 2014 Rise Set
Actual Time 7:10 AM CST 4:53 PM CST
Civil Twilight 6:41 AM CST 5:23 PM CST
Nautical Twilight 6:08 AM CST 5:55 PM CST
Astronomical Twilight 5:36 AM CST 6:27 PM CST
Moon 12:06 PM CST (11/28) 11:40 PM CST (11/28)
Length of Visible Light 10h 41m
Length of Day
9h 43m
Waxing Crescent, 42% of the Moon is Illuminated
Nov 28
Waxing Crescent
Nov 29
First Quarter
Dec 6
Full
Dec 14
Last Quarter
Dec 21
New

Hourly Weather History & Observations

Time (CST) Temp. Windchill Dew Point Humidity Pressure Visibility Wind Dir Wind Speed Gust Speed Precip Events Conditions
12:58 AM 30.6 °F 23.8 °F 23.0 °F 74% 30.29 in 10.0 mi SSE 6.9 mph - N/A   Clear
1:58 AM 30.6 °F 22.4 °F 22.8 °F 73% 30.27 in 10.0 mi South 9.2 mph - N/A   Clear
2:58 AM 30.6 °F 20.7 °F 23.4 °F 75% 30.22 in 10.0 mi South 12.7 mph - N/A   Clear
3:58 AM 31.3 °F 22.7 °F 23.4 °F 72% 30.19 in 10.0 mi South 10.4 mph - N/A   Clear
4:58 AM 31.5 °F 22.9 °F 23.7 °F 73% 30.17 in 10.0 mi South 10.4 mph - N/A   Clear
5:58 AM 31.6 °F 22.1 °F 24.6 °F 75% 30.12 in 10.0 mi South 12.7 mph - N/A   Clear
6:58 AM 32.2 °F 22.7 °F 25.2 °F 75% 30.11 in 10.0 mi South 12.7 mph - N/A   Clear
7:58 AM 35.1 °F 25.9 °F 26.4 °F 71% 30.07 in 10.0 mi SSW 13.8 mph - N/A   Clear
8:58 AM 40.6 °F 32.0 °F 27.5 °F 59% 30.05 in 10.0 mi SSW 17.3 mph - N/A   Clear
9:58 AM 46.2 °F 39.0 °F 28.6 °F 50% 30.04 in 10.0 mi SW 18.4 mph 26.5 mph N/A   Clear
10:58 AM 50.7 °F - 30.0 °F 45% 30.00 in 10.0 mi SW 23.0 mph 29.9 mph N/A   Clear
11:58 AM 54.1 °F - 31.5 °F 42% 29.94 in 10.0 mi WSW 20.7 mph 26.5 mph N/A   Clear
12:58 PM 57.4 °F - 32.9 °F 40% 29.91 in 10.0 mi SW 18.4 mph - N/A   Clear
1:58 PM 59.5 °F - 33.8 °F 38% 29.87 in 10.0 mi SSW 19.6 mph - N/A   Clear
2:58 PM 59.0 °F - 34.9 °F 40% 29.85 in 10.0 mi SW 16.1 mph - N/A   Clear
3:58 PM 58.8 °F - 36.0 °F 42% 29.85 in 10.0 mi SW 15.0 mph - N/A   Clear
4:58 PM 55.8 °F - 36.7 °F 49% 29.84 in 10.0 mi SW 11.5 mph - N/A   Clear
5:58 PM 54.1 °F - 36.1 °F 51% 29.85 in 10.0 mi SW 13.8 mph - N/A   Clear
6:58 PM 53.1 °F - 36.3 °F 53% 29.83 in 10.0 mi SW 15.0 mph - N/A   Clear
7:58 PM 52.3 °F - 36.9 °F 56% 29.82 in 10.0 mi SSW 13.8 mph - N/A   Clear
8:58 PM 49.6 °F - 36.9 °F 61% 29.81 in 10.0 mi SSW 13.8 mph - N/A   Clear
9:58 PM 49.5 °F - 37.0 °F 62% 29.80 in 10.0 mi SSW 16.1 mph - N/A   Clear
10:58 PM 52.2 °F - 39.0 °F 61% 29.77 in 10.0 mi SW 20.7 mph 26.5 mph N/A   Clear
11:58 PM 52.7 °F - 41.2 °F 65% 29.75 in 10.0 mi SW 20.7 mph 26.5 mph N/A   Clear